This is the latest recevied weather packets stored in our database for station/object DG6YGE-6. If no packets are shown the sender has not sent any weather packets the latest 10 day(s).
| Time | Temp. | Humidity | Pressure | Rain* | Wind** | Luminosity | Snow |
|---|---|---|---|---|---|---|---|
| 1787995751 | 20.56° C | 70% | 1009.7 hPa | 0 mm | - | 384 W/m² | - |
| 1787995150 | 20.56° C | 70% | 1009.6 hPa | 0 mm | - | 370 W/m² | - |
| 1787994550 | 20.56° C | 72% | 1009.5 hPa | 0 mm | - | 367 W/m² | - |
| 1787993951 | 20° C | 71% | 1009.6 hPa | 0 mm | - | 322 W/m² | - |
| 1787993350 | 20° C | 71% | 1009.5 hPa | 0 mm | - | 233 W/m² | - |
| 1787992750 | 20° C | 71% | 1009.5 hPa | 0 mm | - | 286 W/m² | - |
| 1787992150 | 20° C | 73% | 1009.5 hPa | 0 mm | - | 255 W/m² | - |
| 1787991551 | 20° C | 74% | 1009.4 hPa | 0 mm | - | 566 W/m² | - |
| 1787990950 | 19.44° C | 76% | 1009.4 hPa | 0 mm | - | 229 W/m² | - |
| 1787990350 | 19.44° C | 76% | 1009.5 hPa | 0 mm | - | 297 W/m² | - |
| 1787989750 | 18.89° C | 78% | 1009.4 hPa | 0 mm | - | 385 W/m² | - |
| 1787989150 | 18.89° C | 78% | 1009.3 hPa | 0 mm | - | 225 W/m² | - |
| 1787988550 | 18.89° C | 78% | 1009.3 hPa | 0 mm | - | 353 W/m² | - |
| 1787987950 | 18.33° C | 80% | 1009.3 hPa | 0 mm | - | 267 W/m² | - |
| 1787987351 | 17.78° C | 83% | 1009.3 hPa | 0 mm | - | 323 W/m² | - |
| 1787986751 | 16.67° C | 84% | 1009.3 hPa | 0 mm | - | 287 W/m² | - |
| 1787986150 | 16.67° C | 85% | 1009.3 hPa | 0 mm | - | 219 W/m² | - |
| 1787985550 | 16.11° C | 85% | 1009.3 hPa | 0 mm | - | 241 W/m² | - |
| 1787984950 | 16.11° C | 86% | 1009.3 hPa | 0 mm | - | 214 W/m² | - |
| 1787984350 | 15.56° C | 86% | 1009.4 hPa | 0 mm | - | 131 W/m² | - |
| 1787983750 | 15.56° C | 86% | 1009.4 hPa | 0 mm | - | 40 W/m² | - |
| 1787983150 | 15.56° C | 86% | 1009.4 hPa | 0 mm | - | 43 W/m² | - |
| 1787982551 | 15.56° C | 86% | 1009.4 hPa | 0 mm | - | 54 W/m² | - |
| 1787981950 | 15.56° C | 87% | 1009.4 hPa | 0 mm | - | 82 W/m² | - |
| 1787981350 | 15.56° C | 87% | 1009.4 hPa | 0 mm | - | 49 W/m² | - |
* Rain latest hour (hover to see other rain measurements)
** Current wind speed in m/s (hover to see current wind gust speed)